User: anonymous   Login
Location: Nantong Television Tower
(32.0188°N, 120.8512°E)
Time: 00:31:12
(UTC+08:00)
Language:

ATLAS 3B CENTAUR R/B - Orbit

View from above orbital plane
View from above orbital plane
View from above satellite
View from above satellite

Ground track
Ground track

The orbit data is extracted from the following two-line orbital elements,

1 28118U 03057B   18114.01450953  .00043404 -12959-5  56857-3 0  9998
2 28118  28.1278 356.0155 2853385 218.9923 116.6004  9.77980999319461
Epoch (UTC): 24 April 2018 00:20:53
Eccentricity: 0.2853385
inclination: 28.1278°
perigee height: 223 km
apogee height: 5494 km
right ascension of ascending node: 356.0155°
argument of perigee: 218.9923°
revolutions per day: 9.77980999
mean anomaly at epoch: 116.6004°
orbit number at epoch: 31946

The dashed part of the orbit path shows where the satellite is in the earth's shadow,  

DLR